x

South Brooks (46132) Wave Buoy

5:00 - Sun 26th Jun 2016 All times are PDT. -7 hours from GMT.

  • Sig Wave height 4.3ft
  • Peak Period 17s
  • Wind
    13mph, 16mph gusts
  • Sea Temp 58°f
  • Aire Temp 59°f
  • Sea Pressure 1025mb
  • South Brooks
  • South Brooks

More Historic Weather Station data

Upgrade to MSW Pro to gain access to the past 30 days of data for over 8000 Wavebouys and Weather Stations around the globe.

Join Pro

Comparision Forecast

View Surf forecast
   
dom 06/26 5:00 4.5ft 17s 13 16 mph 1025mb 58f 59f
4:00 4.5ft 17s 13 16 mph 1025.2mb 58f 59f
3:00 4.5ft 18s 13 16 mph 1025.5mb 58f 59f
2:00 4.5ft 17s 11 13 mph 1025.9mb 58f 60f
1:00 4.5ft 17s 13
mph
1026.1mb 58f 60f
12:00 4.5ft 20s 11 13 mph 1026.2mb 58f 60f
sáb 06/25 11:00 4.5ft 18s 9 11 mph 1026.3mb 58f 59f
10:00 4.5ft 18s 9
mph
1026.3mb 58f 59f
9:00 4.5ft 18s 4
mph
1025.9mb 59f 59f
8:00 4.5ft 15s 4 7 mph 1026mb 59f 60f
7:00 4.5ft 17s 2 4 mph 1026.2mb 59f 60f
6:00 5ft 16s 2 4 mph 1026.4mb 59f 60f
5:00 4.5ft 7s 2 4 mph 1026.6mb 59f 61f
4:00 4.5ft 18s 4
mph
1026.6mb 59f 60f
3:00 4.5ft 18s 4
mph
1026.7mb 59f 61f
2:00 4.5ft 16s 4 7 mph 1026.6mb 58f 61f
1:00 4.5ft 16s 4 7 mph 1026.4mb 58f 60f
12:00 4.5ft 17s 7 9 mph 1026.2mb 58f 61f
11:00 4.5ft 20s 7 9 mph 1026.1mb 58f 62f
10:00 4ft 20s 11 13 mph 1025.8mb 57f 61f
9:00 4.5ft 17s 13 16 mph 1025.7mb 57f 60f
8:00 4ft 17s 13
mph
1025.5mb 57f 59f
7:00 4.5ft 17s 11 13 mph 1025.4mb 57f 59f
6:00 4.5ft 17s 13 16 mph 1025.1mb 57f 59f
5:00 4.5ft 17s 11 13 mph 1025.2mb 57f 60f
4:00 4.5ft 16s 9 11 mph 1025.2mb 57f 59f
3:00 4.5ft 17s 9 11 mph 1025.3mb 57f 61f
2:00 4.5ft 18s 9 11 mph 1025.3mb 58f 59f
1:00 4.5ft 8s 7 9 mph 1025.6mb 58f 58f
12:00 4.5ft 17s 7 9 mph 1025.8mb 58f 58f
vie 06/24 11:00 4.5ft 18s 4 7 mph 1025.8mb 58f 59f
10:00 4.5ft 18s 4 7 mph 1025.7mb 58f 58f
9:00 5ft 17s 7 9 mph 1025.3mb 58f 58f
8:00 4.5ft 7s 4 7 mph 1025.3mb 58f 58f
7:00 5ft 18s 9 11 mph 1024.9mb 58f 58f
6:00 5ft 7s 7 9 mph 1024.7mb 58f 58f
5:00 5ft 17s 9 11 mph 1024.5mb 58f 58f
4:00 5ft 7s 11 13 mph 1024.6mb 58f 58f
3:00 5ft 17s 11 13 mph 1024.3mb 57f 59f
2:00 5ft 18s 13 18 mph 1024.1mb 57f 58f
1:00 5ft 7s 9 11 mph 1023.6mb 57f 60f
12:00 5ft 18s 9
mph
1022.9mb 57f 60f
11:00 5ft 17s 9 11 mph 1022.5mb 57f 60f
10:00 5ft 7s 9
mph
1022.2mb 57f 59f
9:00 5.5ft 7s 9 11 mph 1021.7mb 57f 60f
8:00 5.5ft 7s 13 16 mph 1021.2mb 57f 60f
7:00 6ft 7s 13 18 mph 1020.5mb 57f 61f
6:00 5.5ft 7s 13 18 mph 1020mb 57f 61f
5:00 5.5ft 7s 16 18 mph 1019.5mb 57f 61f
4:00 5ft 7s 16 18 mph 1019.2mb 57f 61f
3:00 5ft 8s 13 18 mph 1019mb 57f 61f
2:00 5ft 6s 18 20 mph 1018.9mb 57f 61f
1:00 5ft 6s 13 18 mph 1018.8mb 57f 61f
12:00 5ft 6s 13 18 mph 1018.6mb 57f 61f
jue 06/23 11:00 4.5ft 18s 13 16 mph 1018.4mb 57f 61f
10:00 4.5ft 18s 16 20 mph 1018.2mb 57f 61f
9:00 4.5ft 5s 16 18 mph 1017.9mb 57f 62f
8:00 4.5ft 18s 16 20 mph 1017.7mb 57f 62f
7:00 4.5ft 8s 16 18 mph 1017.4mb 57f 63f
6:00 5ft 8s 18 20 mph 1017.3mb 57f 62f
5:00 5ft 8s 18 22 mph 1016.9mb 57f 62f
4:00 4.5ft 8s 18 22 mph 1016.6mb 57f 62f
3:00 4.5ft 9s 18 20 mph 1016.1mb 57f 61f
2:00 4.5ft 8s 18 22 mph 1015.6mb 57f 56f
1:00 4.5ft 8s 18 22 mph 1015.1mb 57f 56f
12:00 4.5ft 8s 18 22 mph 1014.8mb 57f 56f
11:00 4.5ft 8s 18 22 mph 1014.3mb 56f 56f
10:00 4.5ft 5s 18 22 mph 1013.9mb 56f 56f
9:00 4.5ft 8s 20 25 mph 1013.3mb 56f 56f
8:00 4.5ft 4s 20 25 mph 1013mb 57f 55f
7:00 4.5ft 5s 22 29 mph 1012.6mb 57f 56f
6:00 4.5ft 8s 22 25 mph 1012.6mb 57f 55f
5:00 5ft 7s 20 25 mph 1012.5mb 57f 55f
4:00 4.5ft 7s 20 25 mph 1012.4mb 57f 55f
3:00 4.5ft 7s 18 22 mph 1012.7mb 57f 55f
2:00 4.5ft 9s 18 20 mph 1012.9mb 56f 55f
1:00 4.5ft 8s 16 20 mph 1013.3mb 56f 55f
12:00 3.5ft 8s 18 20 mph 1013.5mb 56f 56f
mié 06/22 11:00 3.5ft 8s 13 16 mph 1014mb 56f 57f
10:00 3.5ft 9s 16 20 mph 1014.5mb 56f 57f
9:00 3.5ft 9s 13 16 mph 1014.6mb 56f 57f
8:00 3.5ft 9s 11 13 mph 1015.2mb 56f 57f
7:00 4ft 7s 9 11 mph 1015.7mb 56f 57f
6:00 4ft 8s 9 11 mph 1016.1mb 56f 57f
5:00 4.5ft 7s 7 9 mph 1016.5mb 57f 58f
4:00 4.5ft 7s 4 7 mph 1017.1mb 57f 58f
3:00 4.5ft 8s 4 7 mph 1017.2mb 57f 57f
2:00 4.5ft 8s 4 7 mph 1017.4mb 57f 57f